GFSFLT2_sfc_rhum_102.txt.gz
RH
77 77 81 92 92 94 94 90 91 92 93 92 88 88 88 85 86 91 92 91 92 93 92 92 91 93 95 94 91 84 78 67
78 78 77 80 87 95 95 91 92 92 92 91 91 90 88 92 89 89 91 93 94 91 92 92 92 94 93 94 91 85 76 69
79 78 76 78 80 85 94 92 91 92 92 93 94 83 82 86 84 92 90 91 90 89 91 92 94 92 92 93 91 73 84 73
75 78 77 76 65 89 84 81 82 85 83 89 90 84 84 76 86 92 91 91 92 92 93 93 94 96 97 93 83 83 79 77
73 79 80 77 74 81 79 78 81 80 82 84 84 76 89 88 89 86 92 91 88 92 93 92 94 96 95 83 83 82 78 70
71 72 79 78 73 78 76 74 79 82 82 85 88 88 90 89 91 92 88 87 86 82 87 94 93 92 90 82 70 77 74 78
68 74 78 75 78 73 78 79 80 79 82 84 86 88 89 89 90 90 92 92 92 90 89 93 93 91 93 84 72 74 62 66
70 74 77 76 75 78 82 82 84 85 80 84 86 86 89 87 91 89 93 93 92 84 88 92 92 94 94 88 65 72 65 67
72 76 81 81 76 76 79 79 76 81 82 86 90 90 87 86 91 93 93 93 90 89 92 92 93 94 94 86 60 53 58 62
66 66 81 81 79 73 76 75 75 77 82 86 87 88 90 91 91 93 94 93 92 89 91 95 95 95 95 91 62 59 55 58
63 76 82 82 82 77 76 76 74 72 76 82 85 86 87 90 92 94 91 93 92 88 91 90 94 97 95 91 63 60 61 47
60 71 82 84 82 82 74 77 76 78 75 75 79 86 86 89 92 92 92 93 92 92 90 92 91 94 90 86 54 64 61 65
48 66 78 84 84 85 80 84 83 82 75 72 76 82 84 86 93 93 93 94 91 91 89 93 97 94 97 86 79 76 76 72
35 55 69 76 79 77 80 77 81 79 76 76 77 78 83 88 93 96 94 94 92 92 91 92 94 95 92 78 91 90 82 76
29 40 59 71 76 75 76 79 80 82 78 76 78 77 82 89 92 95 96 95 96 96 92 87 90 96 91 76 90 92 89 84
35 33 42 65 76 77 77 76 80 80 75 74 76 81 89 90 94 95 97 95 96 96 94 91 87 94 90 67 69 69 81 97
44 38 34 65 76 75 73 69 72 72 74 74 91 90 90 88 92 96 98 95 96 95 96 96 93 89 78 77 75 75 72 82
49 46 37 70 75 71 69 70 69 70 71 79 92 92 94 89 94 96 95 96 96 94 94 90 93 90 79 82 73 78 75 80
53 40 41 74 76 72 69 69 70 69 68 76 92 98 98 96 95 99 98 96 96 95 94 94 92 93 89 81 79 79 76 73
60 68 44 72 77 72 67 65 65 65 68 72 85 89 93 95 95 96 97 98 96 98 97 94 94 95 89 86 88 86 82 78

GFSFLT2_sfc_rhum_105.txt.gz
RH
95 95 92 94 94 94 93 92 92 92 94 92 91 90 87 81 94 92 91 88 88 89 87 88 89 92 94 96 94 86 90 92
94 96 96 97 98 96 94 92 92 92 92 94 92 92 89 86 92 93 92 89 88 91 92 91 88 89 91 94 95 92 87 86
94 94 95 96 96 94 94 92 91 90 90 94 94 96 93 91 90 94 91 91 92 92 91 90 89 87 85 90 90 94 89 81
93 94 93 94 86 97 98 94 97 96 96 96 97 96 96 90 92 94 93 93 93 93 92 93 91 95 93 89 93 92 87 86
92 93 92 91 92 98 99 99 99 97 95 96 95 92 96 97 96 95 98 94 92 94 96 98 97 97 94 86 91 92 92 87
87 91 92 92 93 94 96 95 98 98 96 95 95 97 97 97 94 97 98 98 98 98 99 98 98 95 92 88 86 95 94 81
83 85 93 86 90 93 95 96 93 94 96 94 92 96 95 96 97 96 97 96 96 98 98 98 98 97 95 92 82 90 82 84
82 83 83 88 92 91 91 92 91 96 97 96 93 96 95 94 96 94 95 95 97 95 96 98 99 97 96 92 88 88 83 79
81 83 82 88 92 90 93 93 94 97 94 89 94 94 93 94 95 96 94 96 95 95 97 98 98 97 95 93 87 90 80 78
76 75 84 87 94 93 93 92 97 97 96 96 96 95 94 94 94 94 94 97 97 97 97 98 98 98 98 95 95 89 78 77
77 81 86 87 94 94 93 92 96 93 95 96 95 95 95 96 96 96 96 98 98 97 98 94 98 98 96 97 96 91 72 67
74 85 87 89 89 96 91 91 96 95 92 94 95 94 94 96 98 97 97 98 98 98 97 97 94 95 91 94 96 92 65 72
76 88 93 91 91 97 89 95 93 95 96 91 94 94 94 95 97 97 97 96 96 97 97 96 98 97 97 99 98 87 77 70
80 87 94 90 84 87 90 81 89 77 92 92 92 95 95 95 97 97 97 97 96 97 93 96 94 96 94 96 97 90 87 77
78 85 92 90 87 85 91 93 87 88 80 83 94 91 92 94 96 96 97 95 95 96 94 91 91 97 91 81 91 84 94 93
50 79 89 90 87 85 84 86 87 80 80 82 95 92 94 94 96 96 93 95 94 95 94 93 94 96 97 91 75 81 83 97
58 60 77 86 84 83 84 87 84 92 86 86 92 96 95 95 95 96 95 94 95 95 97 97 95 91 89 94 83 77 82 89
62 61 65 81 85 84 83 82 85 89 89 92 98 97 97 94 95 97 97 97 96 96 97 95 95 93 88 88 86 78 79 84
64 68 69 73 88 85 82 80 83 82 85 89 98 95 97 97 96 96 96 97 96 97 97 96 96 95 93 94 88 88 80 77
71 74 77 76 87 83 80 76 78 76 78 92 92 92 93 92 93 94 96 96 96 97 97 97 95 94 92 94 95 92 85 78

GFSFLT2_sfc_rhum_111.txt.gz
RH
98 97 96 97 97 97 98 98 96 95 94 94 93 94 94 92 91 90 91 89 87 89 90 90 92 92 92 94 94 95 97 99
99 100 99 98 98 98 98 98 97 96 95 94 94 96 94 92 92 91 91 90 89 88 87 89 92 94 93 94 96 95 97 98
98 99 99 99 98 98 97 98 98 97 96 95 96 97 96 91 86 92 92 91 88 89 89 88 94 96 94 95 94 98 97 98
98 98 99 99 98 99 99 98 98 98 97 97 98 98 98 93 91 93 94 92 88 89 90 90 94 99 99 96 98 97 97 97
98 98 98 98 98 98 100 100 99 99 98 98 98 97 98 98 97 98 98 94 98 98 97 98 96 98 99 96 98 96 98 97
95 96 98 98 99 98 99 99 99 99 99 98 98 99 99 97 94 95 98 99 99 99 99 98 96 95 95 95 96 98 99 98
94 95 96 97 98 99 99 99 99 98 99 98 98 98 98 96 94 95 95 98 99 99 99 99 97 96 95 94 96 97 96 98
94 95 94 96 97 97 98 98 98 99 99 98 97 97 98 97 95 96 96 98 99 99 98 98 99 98 96 93 93 97 97 97
95 94 95 96 96 96 97 97 97 98 98 98 97 97 97 97 96 96 95 98 98 99 99 99 99 99 97 98 97 98 98 97
93 88 95 96 96 97 96 98 97 98 98 98 96 96 95 97 98 98 98 99 98 99 98 99 96 98 99 99 99 99 98 96
92 91 95 96 96 96 96 96 97 98 98 98 96 96 95 96 98 98 98 99 98 98 96 96 96 96 97 99 99 99 98 95
86 90 93 93 97 98 99 98 98 98 97 97 95 94 96 96 97 98 98 98 98 98 97 94 94 92 96 98 98 99 99 98
83 94 94 93 97 98 98 98 98 98 96 95 95 95 96 97 98 97 97 98 96 96 96 96 98 98 99 99 99 98 99 98
82 91 94 91 91 88 89 90 97 96 97 97 94 96 96 96 97 97 97 98 97 94 94 96 96 98 98 98 100 99 99 99
90 93 94 92 91 90 98 97 99 100 98 97 97 96 96 95 95 95 97 95 96 94 94 94 97 98 94 96 100 98 99 99
67 87 93 90 92 92 95 88 90 91 91 91 93 96 97 96 95 96 96 95 96 97 95 95 95 98 97 91 92 91 96 99
72 72 78 83 94 94 95 94 88 97 97 97 98 97 96 96 96 95 97 96 95 96 97 98 96 93 96 95 96 94 90 94
78 76 74 79 83 88 94 94 93 95 94 97 98 98 98 97 97 97 97 96 96 95 95 96 96 95 93 91 90 86 86 86
78 80 81 80 81 80 81 95 95 90 90 88 94 96 97 97 97 98 97 96 95 94 96 96 96 95 93 94 89 85 81 76
82 82 80 78 82 84 85 76 92 93 92 88 90 88 86 94 95 95 94 96 96 96 96 95 94 97 95 95 95 92 88 82

GFSFLT2_sfc_rhum_114.txt.gz
RH
95 95 96 97 98 99 98 96 96 95 95 95 96 96 93 91 90 90 89 90 91 92 92 93 93 94 94 95 94 94 95 96
91 90 98 98 98 99 98 98 96 96 95 95 96 96 94 93 91 90 90 89 91 91 92 93 93 93 94 95 96 94 96 95
91 93 96 99 98 98 98 98 97 96 96 95 98 97 96 94 94 93 90 89 90 90 92 94 94 94 94 95 96 97 97 96
92 92 94 99 98 97 98 95 95 97 97 97 98 98 98 95 92 93 91 90 90 88 86 94 96 99 99 96 99 98 98 98
92 91 93 94 92 94 98 97 98 99 99 98 99 99 98 98 99 98 98 94 98 96 95 98 98 99 99 98 97 98 98 98
96 94 95 96 92 91 93 97 99 99 99 98 99 99 96 98 98 99 99 99 98 99 99 98 97 98 98 97 98 98 99 98
96 98 97 96 95 89 93 96 99 99 99 98 98 97 95 95 96 99 97 96 98 100 99 98 97 97 96 95 97 98 96 99
94 97 96 97 97 91 94 98 99 99 99 97 98 98 97 91 94 95 95 96 99 99 99 99 98 97 96 95 95 97 98 98
93 95 96 98 97 98 98 98 98 98 98 96 98 98 97 91 95 96 96 97 99 99 99 99 98 98 96 97 96 97 98 98
92 86 95 96 96 97 98 98 98 98 99 96 98 97 97 97 93 94 96 98 99 99 98 98 99 98 98 98 98 98 98 98
94 94 96 95 95 96 97 96 97 98 98 97 97 97 97 97 94 96 97 97 98 97 97 98 98 96 95 98 99 99 97 95
87 93 95 95 94 95 95 96 95 97 98 98 97 97 96 97 99 98 97 97 97 98 95 94 97 95 94 95 97 98 97 93
86 95 96 93 95 95 92 94 93 96 97 96 96 96 97 96 98 99 96 96 95 94 93 93 98 96 99 99 99 98 98 97
81 95 97 92 88 86 90 86 88 91 93 98 96 96 96 96 97 98 96 97 96 94 96 97 96 98 98 98 100 99 99 98
85 96 96 95 91 91 98 97 99 99 96 98 97 96 96 95 96 97 97 95 97 97 96 94 98 99 95 95 99 98 99 99
80 86 95 94 92 91 92 91 92 90 90 92 93 97 96 94 96 96 96 96 96 96 94 94 93 97 98 93 92 90 97 99
79 72 78 84 90 91 94 93 93 97 97 92 94 97 96 95 96 96 96 96 95 95 97 97 95 94 95 98 96 96 94 96
73 74 78 80 86 88 93 92 93 98 97 96 93 95 95 96 94 94 93 94 95 96 96 96 96 96 94 92 92 93 94 95
78 77 79 78 83 85 88 93 92 93 95 94 96 98 97 97 97 96 96 96 96 94 96 97 97 97 96 94 94 92 84 82
79 79 80 80 82 86 86 86 88 94 93 92 95 95 93 90 95 96 91 95 96 96 96 97 96 97 96 96 93 92 90 92

GFSFLT2_sfc_rhum_117.txt.gz
RH
84 82 87 98 97 97 96 95 94 95 96 96 96 96 94 91 90 91 92 93 93 93 94 95 95 95 95 95 94 94 68 65
86 86 86 84 87 98 97 96 95 95 96 96 97 96 93 91 91 91 91 92 92 92 93 94 94 95 95 95 95 95 70 66
85 86 87 89 87 89 97 97 96 96 93 96 95 76 76 77 80 92 91 92 92 93 93 94 94 94 94 95 97 83 77 72
83 85 87 90 84 88 87 85 78 78 78 81 84 81 78 73 81 93 92 92 92 93 95 95 90 72 72 91 84 86 88 94
82 84 85 87 84 87 91 88 88 85 83 82 84 81 86 82 73 70 77 85 67 71 74 71 75 76 74 71 77 84 86 91
80 81 84 87 80 85 88 91 93 94 85 87 87 88 90 82 69 72 76 76 74 67 62 72 77 78 74 76 76 88 79 92
78 84 85 83 84 84 88 91 92 87 90 88 84 86 89 83 77 72 72 79 78 76 67 69 74 77 76 74 69 74 75 77
75 86 85 84 86 83 85 88 87 88 88 90 91 84 88 86 85 82 77 79 88 74 67 73 74 74 76 73 69 71 72 75
76 81 86 86 85 83 83 84 85 82 86 91 92 88 86 87 90 88 83 86 92 77 79 77 76 76 72 72 69 71 72 81
70 68 81 85 84 84 83 83 79 75 83 85 92 89 87 87 88 89 88 93 92 85 88 84 76 76 75 72 70 70 70 72
68 73 77 82 81 81 80 83 76 73 78 84 90 90 89 88 89 92 94 94 95 89 91 82 87 76 76 78 77 73 73 70
64 73 76 80 78 83 77 81 77 74 74 77 86 88 91 88 91 92 93 94 96 93 88 84 80 73 77 82 85 85 80 85
65 75 76 76 76 83 80 86 81 82 70 76 84 86 89 90 92 92 94 94 93 92 91 92 90 81 88 94 92 92 91 91
70 74 77 78 73 77 81 88 78 78 81 82 84 85 88 88 93 92 93 94 94 94 92 94 92 92 95 94 98 95 98 92
69 83 77 81 81 86 86 87 90 95 87 86 86 81 87 87 89 91 92 92 92 94 92 93 97 97 91 88 97 94 91 91
70 82 87 86 90 88 90 82 89 84 82 84 87 86 85 84 86 88 91 92 92 92 91 93 90 95 96 89 84 85 88 98
72 75 80 88 96 90 92 89 87 85 88 91 92 92 90 86 87 88 93 90 89 92 94 94 92 85 91 94 86 85 82 93
73 72 74 79 85 90 90 90 87 91 87 93 92 91 91 91 89 91 91 90 88 89 91 93 92 92 90 91 88 91 94 93
72 73 77 78 83 85 88 92 93 89 87 84 90 90 94 92 95 96 94 91 90 87 90 92 93 95 93 92 88 86 75 76
79 75 75 75 79 84 82 86 92 92 89 83 87 85 89 89 94 94 93 91 90 91 93 93 93 95 94 94 91 82 86 87

GFSFLT2_sfc_rhum_120.txt.gz
RH
61 69 80 98 96 96 94 93 94 95 95 95 95 95 93 91 91 91 91 93 94 93 93 94 95 95 95 95 93 90 56 56
65 65 66 68 74 97 95 94 95 96 95 96 97 96 93 92 92 92 93 93 93 93 94 94 95 96 95 95 96 94 58 61
67 68 71 64 63 74 94 95 95 96 92 97 92 59 66 72 73 93 93 93 92 93 94 95 96 95 95 96 96 62 63 67
61 71 78 74 69 68 69 65 62 66 66 70 62 59 60 55 70 93 93 93 94 94 94 95 90 54 66 88 62 67 67 69
63 73 76 80 66 73 67 67 54 61 67 66 65 68 68 58 58 61 64 85 60 70 72 56 53 49 50 54 65 64 66 69
51 62 76 81 55 61 57 72 68 71 67 73 75 74 74 63 55 57 63 56 53 53 52 51 54 55 52 54 58 62 56 69
48 58 69 75 67 54 62 72 76 76 74 76 70 75 72 59 56 58 63 55 53 54 51 52 55 55 54 54 53 58 56 67
43 55 65 72 65 61 70 73 75 74 74 78 74 74 73 58 59 56 60 55 52 55 55 50 51 50 54 54 53 54 56 59
33 56 64 72 75 60 61 73 78 77 78 83 84 80 78 66 68 58 59 63 66 64 59 52 51 50 52 52 50 54 54 59
18 39 60 71 73 61 65 65 79 67 70 83 86 85 79 80 73 76 69 79 72 63 60 57 54 52 51 48 48 47 52 55
18 30 55 66 65 62 63 67 66 52 50 75 83 86 85 81 77 76 84 85 82 69 68 60 58 56 50 50 49 47 50 47
19 22 52 60 60 61 55 54 54 49 49 56 77 85 86 84 83 85 87 85 86 89 78 62 60 59 52 54 57 56 53 58
27 25 42 56 56 56 52 54 52 50 47 53 64 84 86 86 85 88 88 87 86 88 85 78 72 66 77 78 79 74 78 74
39 31 31 51 53 49 47 51 50 48 48 52 59 80 85 81 86 86 88 88 87 88 92 87 82 79 79 78 81 77 86 76
47 47 32 49 59 55 50 52 52 55 53 52 66 70 81 84 84 86 88 87 88 88 89 88 87 88 78 62 77 60 50 58
57 62 72 65 75 63 65 57 62 62 56 55 66 73 66 79 79 85 87 87 84 87 84 88 83 92 88 67 59 52 55 67
69 74 86 94 81 76 77 62 56 57 60 66 74 81 72 71 74 80 83 85 83 84 90 90 90 81 78 81 71 65 61 61
75 76 84 91 94 90 87 89 71 66 73 76 83 84 87 84 70 79 83 81 82 85 87 87 89 86 83 75 68 73 74 71
80 75 80 89 93 91 90 96 93 81 74 75 85 88 92 89 80 84 84 85 80 86 88 85 84 85 80 79 69 66 70 73
87 81 80 79 84 86 86 88 89 90 86 84 73 82 84 84 89 87 84 85 85 82 85 82 82 85 82 86 80 79 78 76